Location: Im Fang
(46.6019°N, 7.2397°E)
Time: 10:13:17
(UTC+00:00)

H-2A R/B - Pass Details

Date: 08 December 2019
Orbit: 501 x 541 km, 97.3° (Epoch: 19 January)

Event Time Altitude Azimuth Distance (km) Brightness Sun altitude
Rises 06:12:35 0° 8° (N) 2,617 6.1 -8.2°
Reaches altitude 10° 06:14:42 10° 4° (N) 1,730 5.2 -7.9°
Maximum altitude 06:18:20 55° 287° (WNW) 618 2.7 -7.4°
Drops below altitude 10° 06:22:00 10° 208° (SSW) 1,734 5.4 -6.8°
Sets 06:24:07 0° 204° (SSW) 2,622 6.3 -6.5°
